Time,TemperatureF,DewpointF,PressureIn,WindDirection,WindDirectionDegrees,WindSpeedMPH,WindSpeedGustMPH,Humidity,HourlyPrecipIn,Conditions,Clouds,dailyrainin,SoftwareType,DateUTC
2013-09-27 00:00:00,50.5,43.1,29.67,South,188,7.0,12.0,76,0.00,,,0.16,VWS V14.01,2013-09-27 05:00:00,
2013-09-27 00:01:00,50.8,43.8,29.68,West,265,3.0,10.0,77,0.00,,,0.00,VWS V14.01,2013-09-27 05:01:00,
2013-09-27 00:06:00,50.8,43.4,29.69,WSW,248,6.0,12.0,76,0.00,,,0.00,VWS V14.01,2013-09-27 05:06:00,
2013-09-27 00:11:00,50.8,43.4,29.69,WSW,249,5.0,12.0,76,0.00,,,0.00,VWS V14.01,2013-09-27 05:11:00,
2013-09-27 00:15:00,50.6,43.9,29.68,WSW,250,4.0,7.0,78,0.00,,,0.16,VWS V14.01,2013-09-27 05:15:00,
2013-09-27 00:16:00,50.6,43.2,29.69,West,262,3.0,10.0,76,0.00,,,0.00,VWS V14.01,2013-09-27 05:16:00,
2013-09-27 00:21:00,50.5,43.5,29.69,WSW,249,12.0,12.0,77,0.00,,,0.00,VWS V14.01,2013-09-27 05:21:00,
2013-09-27 00:26:00,50.5,43.1,29.69,SW,225,12.0,12.0,76,0.00,,,0.00,VWS V14.01,2013-09-27 05:26:00,
2013-09-27 00:30:00,50.5,43.8,29.68,SW,226,4.0,12.0,78,0.00,,,0.16,VWS V14.01,2013-09-27 05:30:00,
2013-09-27 00:31:00,50.4,43.4,29.70,WSW,246,6.0,12.0,77,0.00,,,0.00,VWS V14.01,2013-09-27 05:31:00,
2013-09-27 00:36:00,50.4,43.4,29.69,WSW,244,7.0,12.0,77,0.00,,,0.00,VWS V14.01,2013-09-27 05:36:00,
2013-09-27 00:41:00,50.3,43.3,29.69,West,267,6.0,12.0,77,0.00,,,0.00,VWS V14.01,2013-09-27 05:41:00,
2013-09-27 00:45:00,50.5,43.8,29.69,WSW,246,2.0,10.0,78,0.00,,,0.16,VWS V14.01,2013-09-27 05:45:00,
2013-09-27 00:46:00,50.2,42.8,29.69,West,263,7.0,13.0,76,0.00,,,0.00,VWS V14.01,2013-09-27 05:46:00,
2013-09-27 00:51:00,50.0,42.6,29.69,WSW,251,7.0,13.0,76,0.00,,,0.00,VWS V14.01,2013-09-27 05:51:00,
2013-09-27 00:56:00,49.9,42.5,29.68,West,274,6.0,14.0,76,0.00,,,0.00,VWS V14.01,2013-09-27 05:56:00,
2013-09-27 01:00:00,50.7,44.0,29.69,West,273,5.0,13.0,78,0.00,,,0.00,VWS V14.01,2013-09-27 06:00:00,
2013-09-27 01:01:00,49.6,42.6,29.68,WSW,253,6.0,11.0,77,0.00,,,0.00,VWS V14.01,2013-09-27 06:01:00,
2013-09-27 01:06:00,49.4,42.4,29.69,SW,234,7.0,12.0,77,0.00,,,0.00,VWS V14.01,2013-09-27 06:06:00,
2013-09-27 01:11:00,49.2,42.5,29.69,WSW,246,7.0,12.0,78,0.00,,,0.00,VWS V14.01,2013-09-27 06:11:00,
2013-09-27 01:15:00,50.6,43.2,29.69,WSW,243,10.0,12.0,76,0.00,,,0.00,VWS V14.01,2013-09-27 06:15:00,
2013-09-27 01:16:00,49.0,42.3,29.69,WNW,300,4.0,6.0,78,0.00,,,0.00,VWS V14.01,2013-09-27 06:16:00,
2013-09-27 01:21:00,48.8,42.5,29.68,WNW,284,3.0,8.0,79,0.00,,,0.00,VWS V14.01,2013-09-27 06:21:00,
2013-09-27 01:26:00,48.7,42.4,29.69,WSW,246,7.0,11.0,79,0.00,,,0.00,VWS V14.01,2013-09-27 06:26:00,
2013-09-27 01:30:00,50.4,43.4,29.70,West,269,4.0,14.0,77,0.00,,,0.00,VWS V14.01,2013-09-27 06:30:00,
2013-09-27 01:31:00,48.7,42.7,29.69,West,269,5.0,7.0,80,0.00,,,0.00,VWS V14.01,2013-09-27 06:31:00,
2013-09-27 01:36:00,48.7,42.7,29.69,WSW,238,1.0,9.0,80,0.00,,,0.00,VWS V14.01,2013-09-27 06:36:00,
2013-09-27 01:41:00,48.7,42.7,29.69,WSW,246,7.0,9.0,80,0.00,,,0.00,VWS V14.01,2013-09-27 06:41:00,
2013-09-27 01:45:00,50.2,42.8,29.69,West,263,5.0,16.0,76,0.00,,,0.00,VWS V14.01,2013-09-27 06:45:00,
2013-09-27 01:46:00,48.7,42.7,29.69,WNW,285,5.0,10.0,80,0.00,,,0.00,VWS V14.01,2013-09-27 06:46:00,
2013-09-27 01:51:00,48.6,42.6,29.69,West,274,6.0,10.0,80,0.00,,,0.00,VWS V14.01,2013-09-27 06:51:00,
2013-09-27 01:56:00,48.7,42.7,29.69,WSW,241,7.0,13.0,80,0.00,,,0.00,VWS V14.01,2013-09-27 06:56:00,
2013-09-27 02:00:00,49.7,42.7,29.69,West,279,8.0,14.0,77,0.00,,,0.00,VWS V14.01,2013-09-27 07:00:00,
2013-09-27 02:01:00,48.7,42.7,29.69,WSW,238,6.0,11.0,80,0.00,,,0.00,VWS V14.01,2013-09-27 07:01:00,
2013-09-27 02:06:00,48.7,42.7,29.70,West,261,5.0,13.0,80,0.00,,,0.00,VWS V14.01,2013-09-27 07:06:00,
2013-09-27 02:11:00,48.8,42.8,29.70,WSW,253,6.0,13.0,80,0.00,,,0.00,VWS V14.01,2013-09-27 07:11:00,
2013-09-27 02:15:00,49.1,42.5,29.69,WNW,282,5.0,12.0,78,0.00,,,0.00,VWS V14.01,2013-09-27 07:15:00,
2013-09-27 02:16:00,48.8,42.8,29.70,WSW,242,5.0,9.0,80,0.00,,,0.00,VWS V14.01,2013-09-27 07:16:00,
2013-09-27 02:21:00,48.8,42.8,29.70,WSW,241,8.0,12.0,80,0.00,,,0.00,VWS V14.01,2013-09-27 07:21:00,
2013-09-27 02:26:00,48.8,42.8,29.70,WSW,240,6.0,12.0,80,0.00,,,0.00,VWS V14.01,2013-09-27 07:26:00,
2013-09-27 02:30:00,48.7,42.7,29.69,SSW,203,4.0,11.0,80,0.00,,,0.00,VWS V14.01,2013-09-27 07:30:00,
2013-09-27 02:31:00,48.7,42.7,29.70,West,276,7.0,8.0,80,0.00,,,0.00,VWS V14.01,2013-09-27 07:31:00,
2013-09-27 02:36:00,48.7,42.7,29.70,WSW,248,9.0,10.0,80,0.00,,,0.00,VWS V14.01,2013-09-27 07:36:00,
2013-09-27 02:41:00,48.7,42.7,29.69,SSW,203,6.0,13.0,80,0.00,,,0.00,VWS V14.01,2013-09-27 07:41:00,
2013-09-27 02:45:00,48.7,42.7,29.69,South,190,3.0,9.0,80,0.00,,,0.00,VWS V14.01,2013-09-27 07:45:00,
2013-09-27 02:46:00,48.6,43.0,29.69,West,265,7.0,10.0,81,0.00,,,0.00,VWS V14.01,2013-09-27 07:46:00,
2013-09-27 02:49:00,48.6,43.0,29.69,SW,234,7.0,15.0,81,0.00,,,0.00,VWS V14.01,2013-09-27 07:49:00,
2013-09-27 02:54:00,48.6,43.0,29.68,West,261,6.0,15.0,81,0.00,,,0.00,VWS V14.01,2013-09-27 07:54:00,
2013-09-27 02:59:00,48.6,43.0,29.68,West,271,6.0,15.0,81,0.00,,,0.00,VWS V14.01,2013-09-27 07:59:00,
2013-09-27 03:00:00,48.7,42.7,29.70,West,263,5.0,13.0,80,0.00,,,0.00,VWS V14.01,2013-09-27 08:00:00,
2013-09-27 03:04:00,48.5,42.8,29.69,WSW,257,5.0,10.0,81,0.00,,,0.00,VWS V14.01,2013-09-27 08:04:00,
2013-09-27 03:09:00,48.4,42.8,29.69,West,280,4.0,10.0,81,0.00,,,0.00,VWS V14.01,2013-09-27 08:09:00,
2013-09-27 03:14:00,48.1,42.5,29.67,WSW,252,5.0,10.0,81,0.00,,,0.00,VWS V14.01,2013-09-27 08:14:00,
2013-09-27 03:15:00,48.8,42.8,29.70,SW,226,6.0,13.0,80,0.00,,,0.00,VWS V14.01,2013-09-27 08:15:00,
2013-09-27 03:19:00,47.9,42.6,29.68,West,267,5.0,9.0,82,0.00,,,0.00,VWS V14.01,2013-09-27 08:19:00,
2013-09-27 03:24:00,47.8,42.5,29.67,WNW,286,7.0,10.0,82,0.00,,,0.00,VWS V14.01,2013-09-27 08:24:00,
2013-09-27 03:29:00,47.6,42.3,29.66,NW,316,9.0,11.0,82,0.00,,,0.00,VWS V14.01,2013-09-27 08:29:00,
2013-09-27 03:30:00,48.7,42.7,29.70,WSW,253,5.0,12.0,80,0.00,,,0.00,VWS V14.01,2013-09-27 08:30:00,
2013-09-27 03:34:00,47.4,42.4,29.66,West,275,7.0,9.0,83,0.00,,,0.00,VWS V14.01,2013-09-27 08:34:00,
2013-09-27 03:39:00,47.2,42.2,29.66,WNW,290,6.0,12.0,83,0.00,,,0.00,VWS V14.01,2013-09-27 08:39:00,
2013-09-27 03:44:00,47.0,42.0,29.65,WNW,290,7.0,12.0,83,0.00,,,0.00,VWS V14.01,2013-09-27 08:44:00,
2013-09-27 03:45:00,48.6,43.0,29.69,SW,228,7.0,13.0,81,0.00,,,0.00,VWS V14.01,2013-09-27 08:45:00,
2013-09-27 03:49:00,46.7,42.0,29.64,WNW,284,7.0,11.0,84,0.00,,,0.00,VWS V14.01,2013-09-27 08:49:00,
2013-09-27 03:54:00,46.6,41.9,29.64,WNW,287,9.0,12.0,84,0.00,,,0.00,VWS V14.01,2013-09-27 08:54:00,
2013-09-27 03:59:00,46.5,42.2,29.63,West,271,9.0,14.0,85,0.00,,,0.00,VWS V14.01,2013-09-27 08:59:00,
2013-09-27 04:00:00,48.5,42.8,29.69,WSW,238,8.0,15.0,81,0.00,,,0.00,VWS V14.01,2013-09-27 09:00:00,
2013-09-27 04:04:00,46.4,42.0,29.62,WNW,302,4.0,12.0,85,0.00,,,0.00,VWS V14.01,2013-09-27 09:04:00,
2013-09-27 04:08:00,46.1,42.1,29.62,WNW,300,5.0,12.0,86,0.00,,,0.00,VWS V14.01,2013-09-27 09:08:00,
2013-09-27 04:13:00,46.0,42.0,29.63,WNW,292,4.0,12.0,86,0.00,,,0.00,VWS V14.01,2013-09-27 09:13:00,
2013-09-27 04:15:00,48.1,42.5,29.67,SSW,212,3.0,10.0,81,0.00,,,0.00,VWS V14.01,2013-09-27 09:15:00,
2013-09-27 04:18:00,45.9,42.2,29.62,WNW,303,2.0,6.0,87,0.00,,,0.00,VWS V14.01,2013-09-27 09:18:00,
2013-09-27 04:23:00,46.0,42.3,29.62,WNW,282,5.0,7.0,87,0.00,,,0.00,VWS V14.01,2013-09-27 09:23:00,
2013-09-27 04:28:00,46.1,42.4,29.62,WNW,297,3.0,10.0,87,0.00,,,0.00,VWS V14.01,2013-09-27 09:28:00,
2013-09-27 04:30:00,47.6,42.3,29.66,West,277,6.0,11.0,82,0.00,,,0.00,VWS V14.01,2013-09-27 09:30:00,
2013-09-27 04:33:00,46.2,42.5,29.62,WNW,286,6.0,8.0,87,0.00,,,0.00,VWS V14.01,2013-09-27 09:33:00,
2013-09-27 04:38:00,46.3,42.6,29.63,WNW,287,6.0,11.0,87,0.00,,,0.00,VWS V14.01,2013-09-27 09:38:00,
2013-09-27 04:43:00,46.5,42.8,29.64,WNW,289,9.0,11.0,87,0.00,,,0.00,VWS V14.01,2013-09-27 09:43:00,
2013-09-27 04:45:00,46.9,42.2,29.64,WNW,282,9.0,12.0,84,0.00,,,0.00,VWS V14.01,2013-09-27 09:45:00,
2013-09-27 04:48:00,46.6,42.8,29.64,WNW,282,5.0,9.0,87,0.00,,,0.00,VWS V14.01,2013-09-27 09:48:00,
2013-09-27 04:53:00,46.7,43.0,29.64,WNW,283,8.0,10.0,87,0.00,,,0.00,VWS V14.01,2013-09-27 09:53:00,
2013-09-27 04:58:00,46.8,43.0,29.64,West,268,6.0,10.0,87,0.00,,,0.00,VWS V14.01,2013-09-27 09:58:00,
2013-09-27 05:00:00,46.5,42.2,29.63,WNW,285,10.0,14.0,85,0.00,,,0.00,VWS V14.01,2013-09-27 10:00:00,
2013-09-27 05:03:00,46.9,43.2,29.65,West,268,5.0,7.0,87,0.00,,,0.00,VWS V14.01,2013-09-27 10:03:00,
2013-09-27 05:08:00,46.9,43.2,29.65,WNW,289,7.0,8.0,87,0.00,,,0.00,VWS V14.01,2013-09-27 10:08:00,
2013-09-27 05:13:00,46.9,43.2,29.65,West,276,7.0,9.0,87,0.00,,,0.00,VWS V14.01,2013-09-27 10:13:00,
2013-09-27 05:15:00,46.0,42.0,29.63,WNW,298,2.0,12.0,86,0.00,,,0.00,VWS V14.01,2013-09-27 10:15:00,
2013-09-27 05:18:00,47.0,43.2,29.66,West,262,4.0,7.0,87,0.00,,,0.00,VWS V14.01,2013-09-27 10:18:00,
2013-09-27 05:23:00,47.0,43.2,29.67,WSW,255,5.0,7.0,87,0.00,,,0.00,VWS V14.01,2013-09-27 10:23:00,
2013-09-27 05:29:00,47.2,43.4,29.67,WNW,292,6.0,8.0,87,0.00,,,0.00,VWS V14.01,2013-09-27 10:29:00,
2013-09-27 05:30:00,46.1,42.4,29.62,WNW,286,4.0,10.0,87,0.00,,,0.00,VWS V14.01,2013-09-27 10:30:00,
2013-09-27 05:34:00,47.3,43.5,29.67,WNW,299,5.0,7.0,87,0.00,,,0.00,VWS V14.01,2013-09-27 10:34:00,
2013-09-27 05:38:00,47.4,43.6,29.67,West,278,6.0,7.0,87,0.00,,,0.00,VWS V14.01,2013-09-27 10:38:00,
2013-09-27 05:43:00,47.5,43.7,29.66,WNW,284,4.0,9.0,87,0.00,,,0.00,VWS V14.01,2013-09-27 10:43:00,
2013-09-27 05:45:00,46.6,42.8,29.63,WNW,297,7.0,11.0,87,0.00,,,0.00,VWS V14.01,2013-09-27 10:45:00,
2013-09-27 05:48:00,47.6,43.8,29.65,WNW,284,4.0,10.0,87,0.00,,,0.00,VWS V14.01,2013-09-27 10:48:00,
2013-09-27 05:53:00,47.6,43.8,29.66,West,280,5.0,10.0,87,0.00,,,0.00,VWS V14.01,2013-09-27 10:53:00,
2013-09-27 05:58:00,47.6,43.8,29.67,West,262,5.0,10.0,87,0.00,,,0.00,VWS V14.01,2013-09-27 10:58:00,
2013-09-27 06:00:00,46.8,43.0,29.64,WNW,289,4.0,10.0,87,0.00,,,0.00,VWS V14.01,2013-09-27 11:00:00,
2013-09-27 06:03:00,47.8,44.0,29.67,West,280,7.0,12.0,87,0.00,,,0.00,VWS V14.01,2013-09-27 11:03:00,
2013-09-27 06:08:00,47.8,44.0,29.65,NW,309,3.0,12.0,87,0.00,,,0.00,VWS V14.01,2013-09-27 11:08:00,
2013-09-27 06:13:00,47.9,44.1,29.66,WNW,287,3.0,12.0,87,0.00,,,0.00,VWS V14.01,2013-09-27 11:13:00,
2013-09-27 06:15:00,46.9,43.2,29.65,West,272,7.0,9.0,87,0.00,,,0.00,VWS V14.01,2013-09-27 11:15:00,
2013-09-27 06:18:00,47.9,44.1,29.66,West,280,5.0,6.0,87,0.00,,,0.00,VWS V14.01,2013-09-27 11:18:00,
2013-09-27 06:23:00,47.9,44.1,29.66,West,267,5.0,6.0,87,0.00,,,0.00,VWS V14.01,2013-09-27 11:23:00,
2013-09-27 06:28:00,48.0,44.2,29.66,West,269,3.0,6.0,87,0.00,,,0.00,VWS V14.01,2013-09-27 11:28:00,
2013-09-27 06:30:00,47.2,43.4,29.67,WSW,254,4.0,8.0,87,0.00,,,0.00,VWS V14.01,2013-09-27 11:30:00,
2013-09-27 06:33:00,47.9,44.1,29.67,WSW,249,2.0,7.0,87,0.00,,,0.00,VWS V14.01,2013-09-27 11:33:00,
2013-09-27 06:38:00,48.0,44.2,29.67,West,271,3.0,7.0,87,0.00,,,0.00,VWS V14.01,2013-09-27 11:38:00,
2013-09-27 06:43:00,48.0,44.2,29.68,WSW,255,1.0,7.0,87,0.00,,,0.00,VWS V14.01,2013-09-27 11:43:00,
2013-09-27 06:45:00,47.6,43.8,29.66,WNW,289,4.0,9.0,87,0.00,,,0.00,VWS V14.01,2013-09-27 11:45:00,
2013-09-27 06:48:00,48.0,44.2,29.68,SW,232,8.0,9.0,87,0.00,,,0.00,VWS V14.01,2013-09-27 11:48:00,
2013-09-27 06:53:00,48.0,44.2,29.67,West,279,5.0,9.0,87,0.00,,,0.00,VWS V14.01,2013-09-27 11:53:00,
2013-09-27 06:58:00,48.1,44.3,29.68,WNW,293,5.0,9.0,87,0.00,,,0.00,VWS V14.01,2013-09-27 11:58:00,
2013-09-27 07:00:00,47.7,43.9,29.67,WNW,287,4.0,10.0,87,0.00,,,0.00,VWS V14.01,2013-09-27 12:00:00,
2013-09-27 07:03:00,48.1,44.3,29.69,SW,234,6.0,10.0,87,0.00,,,0.00,VWS V14.01,2013-09-27 12:03:00,
2013-09-27 07:08:00,48.2,44.4,29.70,WNW,284,4.0,11.0,87,0.00,,,0.00,VWS V14.01,2013-09-27 12:08:00,
2013-09-27 07:13:00,48.3,44.5,29.69,West,261,4.0,11.0,87,0.00,,,0.00,VWS V14.01,2013-09-27 12:13:00,
2013-09-27 07:15:00,47.9,44.1,29.66,WNW,292,5.0,12.0,87,0.00,,,0.00,VWS V14.01,2013-09-27 12:15:00,
2013-09-27 07:18:00,48.3,44.5,29.69,West,272,4.0,8.0,87,0.00,,,0.00,VWS V14.01,2013-09-27 12:18:00,
2013-09-27 07:23:00,48.4,44.6,29.69,WSW,258,7.0,10.0,87,0.00,,,0.00,VWS V14.01,2013-09-27 12:23:00,
2013-09-27 07:28:00,48.4,44.6,29.67,NW,305,10.0,12.0,87,0.00,,,0.00,VWS V14.01,2013-09-27 12:28:00,
2013-09-27 07:30:00,47.9,44.1,29.66,WNW,288,6.0,6.0,87,0.00,,,0.00,VWS V14.01,2013-09-27 12:30:00,
2013-09-27 07:33:00,48.3,44.8,29.68,WNW,291,9.0,10.0,88,0.00,,,0.00,VWS V14.01,2013-09-27 12:33:00,
2013-09-27 07:38:00,48.1,44.6,29.69,West,259,5.0,10.0,88,0.01,,,0.01,VWS V14.01,2013-09-27 12:38:00,
2013-09-27 07:43:00,47.9,44.7,29.69,West,268,5.0,10.0,89,0.01,,,0.01,VWS V14.01,2013-09-27 12:43:00,
2013-09-27 07:45:00,48.0,44.2,29.68,West,274,3.0,7.0,87,0.00,,,0.00,VWS V14.01,2013-09-27 12:45:00,
2013-09-27 07:48:00,47.8,44.9,29.69,WNW,295,6.0,7.0,90,0.01,,,0.01,VWS V14.01,2013-09-27 12:48:00,
2013-09-27 07:53:00,47.7,45.1,29.68,WNW,296,4.0,8.0,91,0.01,,,0.01,VWS V14.01,2013-09-27 12:53:00,
2013-09-27 07:58:00,47.6,45.0,29.68,West,278,5.0,9.0,91,0.01,,,0.01,VWS V14.01,2013-09-27 12:58:00,
2013-09-27 08:00:00,48.1,44.3,29.68,WSW,255,3.0,9.0,87,0.00,,,0.00,VWS V14.01,2013-09-27 13:00:00,
2013-09-27 08:03:00,47.6,45.0,29.69,WNW,297,6.0,9.0,91,0.01,,,0.01,VWS V14.01,2013-09-27 13:03:00,
2013-09-27 08:08:00,47.5,45.2,29.69,West,272,3.0,9.0,92,0.02,,,0.02,VWS V14.01,2013-09-27 13:08:00,
2013-09-27 08:13:00,47.5,45.2,29.69,West,275,4.0,9.0,92,0.02,,,0.02,VWS V14.01,2013-09-27 13:13:00,
2013-09-27 08:15:00,48.3,44.5,29.69,West,281,4.0,11.0,87,0.00,,,0.00,VWS V14.01,2013-09-27 13:15:00,
2013-09-27 08:18:00,47.5,45.2,29.69,West,278,4.0,7.0,92,0.02,,,0.02,VWS V14.01,2013-09-27 13:18:00,
2013-09-27 08:23:00,47.4,45.1,29.69,West,277,5.0,7.0,92,0.02,,,0.02,VWS V14.01,2013-09-27 13:23:00,
2013-09-27 08:28:00,47.4,45.1,29.69,WNW,290,3.0,7.0,92,0.02,,,0.02,VWS V14.01,2013-09-27 13:28:00,
2013-09-27 08:30:00,48.4,44.6,29.68,West,272,7.0,12.0,87,0.00,,,0.00,VWS V14.01,2013-09-27 13:30:00,
2013-09-27 08:33:00,47.4,45.1,29.69,West,280,3.0,6.0,92,0.02,,,0.02,VWS V14.01,2013-09-27 13:33:00,
2013-09-27 08:38:00,47.4,45.1,29.69,West,281,1.0,6.0,92,0.02,,,0.02,VWS V14.01,2013-09-27 13:38:00,
2013-09-27 08:43:00,47.6,45.3,29.69,WNW,294,2.0,6.0,92,0.02,,,0.02,VWS V14.01,2013-09-27 13:43:00,
2013-09-27 08:45:00,47.8,44.9,29.69,WNW,284,3.0,10.0,90,0.01,,,0.01,VWS V14.01,2013-09-27 13:45:00,
2013-09-27 08:48:00,47.6,45.3,29.69,WNW,282,3.0,6.0,92,0.01,,,0.02,VWS V14.01,2013-09-27 13:48:00,
2013-09-27 08:53:00,47.7,45.7,29.68,WNW,286,3.0,6.0,93,0.01,,,0.02,VWS V14.01,2013-09-27 13:53:00,
2013-09-27 08:58:00,47.8,45.5,29.68,West,269,2.0,6.0,92,0.01,,,0.02,VWS V14.01,2013-09-27 13:58:00,
2013-09-27 09:00:00,47.6,45.0,29.68,WSW,257,4.0,9.0,91,0.01,,,0.01,VWS V14.01,2013-09-27 14:00:00,
2013-09-27 09:03:00,47.8,45.8,29.67,WNW,294,0.0,4.0,93,0.01,,,0.02,VWS V14.01,2013-09-27 14:03:00,
2013-09-27 09:08:00,47.9,45.9,29.67,WNW,294,0.0,4.0,93,0.01,,,0.02,VWS V14.01,2013-09-27 14:08:00,
2013-09-27 09:13:00,48.0,46.0,29.67,WNW,294,1.0,4.0,93,0.01,,,0.02,VWS V14.01,2013-09-27 14:13:00,
2013-09-27 09:15:00,47.5,45.2,29.69,WNW,288,4.0,9.0,92,0.02,,,0.02,VWS V14.01,2013-09-27 14:15:00,
2013-09-27 09:18:00,48.0,46.0,29.67,West,262,0.0,2.0,93,0.00,,,0.02,VWS V14.01,2013-09-27 14:18:00,
2013-09-27 09:23:00,48.1,46.1,29.68,West,262,0.0,2.0,93,0.00,,,0.02,VWS V14.01,2013-09-27 14:23:00,
2013-09-27 09:28:00,48.1,46.1,29.68,WNW,285,3.0,4.0,93,0.00,,,0.02,VWS V14.01,2013-09-27 14:28:00,
2013-09-27 09:30:00,47.4,45.1,29.69,West,270,6.0,7.0,92,0.02,,,0.02,VWS V14.01,2013-09-27 14:30:00,
2013-09-27 09:33:00,47.8,45.5,29.69,West,264,1.0,4.0,92,0.00,,,0.02,VWS V14.01,2013-09-27 14:33:00,
2013-09-27 09:38:00,47.8,45.5,29.70,West,274,3.0,6.0,92,0.00,,,0.02,VWS V14.01,2013-09-27 14:38:00,
2013-09-27 09:43:00,47.8,45.8,29.70,WSW,251,2.0,6.0,93,0.00,,,0.02,VWS V14.01,2013-09-27 14:43:00,
2013-09-27 09:45:00,47.6,45.6,29.69,WNW,292,2.0,6.0,93,0.02,,,0.02,VWS V14.01,2013-09-27 14:45:00,
2013-09-27 09:48:00,47.9,45.9,29.70,West,265,2.0,3.0,93,0.00,,,0.02,VWS V14.01,2013-09-27 14:48:00,
2013-09-27 09:53:00,47.9,45.9,29.70,West,272,2.0,5.0,93,0.00,,,0.02,VWS V14.01,2013-09-27 14:53:00,
2013-09-27 09:58:00,48.0,46.0,29.70,West,278,4.0,5.0,93,0.00,,,0.02,VWS V14.01,2013-09-27 14:58:00,
2013-09-27 10:00:00,47.8,45.5,29.68,West,279,3.0,6.0,92,0.01,,,0.02,VWS V14.01,2013-09-27 15:00:00,
2013-09-27 10:03:00,48.1,46.1,29.70,WNW,282,3.0,6.0,93,0.00,,,0.02,VWS V14.01,2013-09-27 15:03:00,
2013-09-27 10:08:00,48.4,46.4,29.70,WNW,293,3.0,6.0,93,0.00,,,0.02,VWS V14.01,2013-09-27 15:08:00,
2013-09-27 10:13:00,48.7,46.7,29.69,West,281,5.0,6.0,93,0.00,,,0.02,VWS V14.01,2013-09-27 15:13:00,
2013-09-27 10:15:00,48.0,46.0,29.67,West,262,2.0,4.0,93,0.01,,,0.02,VWS V14.01,2013-09-27 15:15:00,
2013-09-27 10:18:00,49.0,47.0,29.69,WNW,284,5.0,6.0,93,0.00,,,0.02,VWS V14.01,2013-09-27 15:18:00,
2013-09-27 10:23:00,49.6,47.6,29.70,WNW,287,5.0,7.0,93,0.00,,,0.02,VWS V14.01,2013-09-27 15:23:00,
2013-09-27 10:28:00,49.6,47.3,29.69,WNW,288,6.0,10.0,92,0.00,,,0.02,VWS V14.01,2013-09-27 15:28:00,
2013-09-27 10:30:00,47.9,45.6,29.68,WNW,283,2.0,4.0,92,0.00,,,0.02,VWS V14.01,2013-09-27 15:30:00,
2013-09-27 10:33:00,49.8,47.2,29.69,WNW,288,8.0,11.0,91,0.00,,,0.02,VWS V14.01,2013-09-27 15:33:00,
2013-09-27 10:38:00,50.2,47.6,29.68,WNW,292,11.0,11.0,91,0.00,,,0.02,VWS V14.01,2013-09-27 15:38:00,
2013-09-27 10:43:00,50.7,47.8,29.67,WNW,286,6.0,14.0,90,0.00,,,0.02,VWS V14.01,2013-09-27 15:43:00,
2013-09-27 10:45:00,47.8,45.8,29.70,WSW,251,1.0,6.0,93,0.00,,,0.02,VWS V14.01,2013-09-27 15:45:00,
2013-09-27 10:48:00,51.1,48.2,29.67,WNW,285,5.0,11.0,90,0.00,,,0.02,VWS V14.01,2013-09-27 15:48:00,
2013-09-27 10:53:00,51.6,48.4,29.67,West,275,3.0,11.0,89,0.00,,,0.02,VWS V14.01,2013-09-27 15:53:00,
2013-09-27 10:58:00,51.9,48.7,29.68,WNW,286,5.0,11.0,89,0.00,,,0.02,VWS V14.01,2013-09-27 15:58:00,
2013-09-27 11:00:00,48.0,46.0,29.70,West,266,3.0,6.0,93,0.00,,,0.02,VWS V14.01,2013-09-27 16:00:00,
2013-09-27 11:03:00,52.2,49.0,29.68,WSW,257,7.0,9.0,89,0.00,,,0.02,VWS V14.01,2013-09-27 16:03:00,
2013-09-27 11:08:00,52.1,48.3,29.68,West,259,8.0,12.0,87,0.00,,,0.02,VWS V14.01,2013-09-27 16:08:00,
2013-09-27 11:13:00,52.1,48.0,29.68,WNW,290,10.0,13.0,86,0.00,,,0.02,VWS V14.01,2013-09-27 16:13:00,
2013-09-27 11:15:00,48.8,46.8,29.69,WNW,284,4.0,6.0,93,0.00,,,0.02,VWS V14.01,2013-09-27 16:15:00,
2013-09-27 11:18:00,51.8,47.7,29.69,WNW,287,9.0,10.0,86,0.00,,,0.02,VWS V14.01,2013-09-27 16:18:00,
2013-09-27 11:23:00,51.7,47.6,29.69,WNW,283,5.0,12.0,86,0.00,,,0.02,VWS V14.01,2013-09-27 16:23:00,
2013-09-27 11:28:00,51.8,47.7,29.69,WNW,291,10.0,12.0,86,0.00,,,0.02,VWS V14.01,2013-09-27 16:28:00,
2013-09-27 11:30:00,49.9,47.6,29.69,WNW,302,5.0,10.0,92,0.00,,,0.02,VWS V14.01,2013-09-27 16:30:00,
2013-09-27 11:33:00,52.1,48.0,29.69,WNW,293,4.0,11.0,86,0.00,,,0.02,VWS V14.01,2013-09-27 16:33:00,
2013-09-27 11:38:00,52.4,47.9,29.69,West,259,6.0,11.0,85,0.00,,,0.02,VWS V14.01,2013-09-27 16:38:00,
2013-09-27 11:43:00,52.8,48.6,29.69,WNW,294,2.0,11.0,86,0.00,,,0.02,VWS V14.01,2013-09-27 16:43:00,
2013-09-27 11:45:00,50.7,47.5,29.67,WNW,298,9.0,14.0,89,0.00,,,0.02,VWS V14.01,2013-09-27 16:45:00,
2013-09-27 11:48:00,53.1,48.6,29.69,West,280,8.0,11.0,85,0.00,,,0.02,VWS V14.01,2013-09-27 16:48:00,
2013-09-27 11:53:00,52.7,47.9,29.68,WNW,296,8.0,11.0,84,0.00,,,0.02,VWS V14.01,2013-09-27 16:53:00,
2013-09-27 11:58:00,52.7,47.9,29.67,NW,305,5.0,12.0,84,0.00,,,0.02,VWS V14.01,2013-09-27 16:58:00,
2013-09-27 12:00:00,51.9,48.4,29.68,WNW,283,6.0,11.0,88,0.00,,,0.02,VWS V14.01,2013-09-27 17:00:00,
2013-09-27 12:03:00,53.0,48.5,29.68,West,273,7.0,10.0,85,0.00,,,0.02,VWS V14.01,2013-09-27 17:03:00,
2013-09-27 12:08:00,53.1,48.0,29.68,NNW,346,3.0,10.0,83,0.00,,,0.02,VWS V14.01,2013-09-27 17:08:00,
2013-09-27 12:13:00,53.0,47.6,29.68,WNW,296,8.0,11.0,82,0.00,,,0.02,VWS V14.01,2013-09-27 17:13:00,
2013-09-27 12:15:00,51.9,47.8,29.68,WNW,299,3.0,14.0,86,0.00,,,0.02,VWS V14.01,2013-09-27 17:15:00,
2013-09-27 12:18:00,53.0,47.9,29.68,NW,319,3.0,10.0,83,0.00,,,0.02,VWS V14.01,2013-09-27 17:18:00,
2013-09-27 12:23:00,53.0,47.9,29.68,WNW,296,3.0,10.0,83,0.00,,,0.02,VWS V14.01,2013-09-27 17:23:00,
2013-09-27 12:26:00,53.0,47.9,29.69,NNW,346,2.0,10.0,83,0.00,,,0.02,VWS V14.01,2013-09-27 17:26:00,
2013-09-27 12:30:00,51.9,47.8,29.69,WNW,283,9.0,12.0,86,0.00,,,0.02,VWS V14.01,2013-09-27 17:30:00,
2013-09-27 12:31:00,53.0,47.9,29.70,WNW,284,4.0,7.0,83,0.00,,,0.02,VWS V14.01,2013-09-27 17:31:00,
2013-09-27 12:36:00,53.0,47.6,29.70,WNW,289,4.0,8.0,82,0.00,,,0.02,VWS V14.01,2013-09-27 17:36:00,
2013-09-27 12:41:00,53.0,47.6,29.70,WNW,292,5.0,8.0,82,0.00,,,0.02,VWS V14.01,2013-09-27 17:41:00,
2013-09-27 12:45:00,53.0,48.8,29.69,WNW,286,7.0,11.0,86,0.00,,,0.02,VWS V14.01,2013-09-27 17:45:00,
2013-09-27 12:46:00,52.9,47.5,29.69,WNW,284,5.0,7.0,82,0.00,,,0.02,VWS V14.01,2013-09-27 17:46:00,
2013-09-27 12:51:00,52.8,47.4,29.69,WNW,302,5.0,9.0,82,0.00,,,0.02,VWS V14.01,2013-09-27 17:51:00,
2013-09-27 12:56:00,53.0,47.6,29.68,WNW,295,6.0,9.0,82,0.00,,,0.02,VWS V14.01,2013-09-27 17:56:00,
2013-09-27 13:00:00,52.8,48.3,29.67,WNW,301,3.0,12.0,85,0.00,,,0.02,VWS V14.01,2013-09-27 18:00:00,
2013-09-27 13:01:00,53.4,48.0,29.67,West,273,6.0,10.0,82,0.00,,,0.02,VWS V14.01,2013-09-27 18:01:00,
2013-09-27 13:06:00,53.4,48.0,29.68,WNW,289,0.0,10.0,82,0.00,,,0.02,VWS V14.01,2013-09-27 18:06:00,
2013-09-27 13:11:00,53.4,48.0,29.68,NW,318,5.0,10.0,82,0.00,,,0.02,VWS V14.01,2013-09-27 18:11:00,
2013-09-27 13:15:00,53.0,47.6,29.69,NNW,336,2.0,11.0,82,0.00,,,0.02,VWS V14.01,2013-09-27 18:15:00,
2013-09-27 13:16:00,53.2,47.4,29.69,NW,313,2.0,4.0,81,0.00,,,0.02,VWS V14.01,2013-09-27 18:16:00,
2013-09-27 13:21:00,53.2,47.8,29.68,NW,305,2.0,7.0,82,0.00,,,0.02,VWS V14.01,2013-09-27 18:21:00,
2013-09-27 13:26:00,53.2,47.8,29.68,WNW,302,1.0,7.0,82,0.00,,,0.02,VWS V14.01,2013-09-27 18:26:00,
2013-09-27 13:30:00,53.0,47.9,29.69,WNW,288,7.0,10.0,83,0.00,,,0.02,VWS V14.01,2013-09-27 18:30:00,
2013-09-27 13:31:00,53.1,47.3,29.68,West,272,5.0,7.0,81,0.00,,,0.02,VWS V14.01,2013-09-27 18:31:00,
2013-09-27 13:36:00,53.3,47.9,29.68,WNW,296,5.0,7.0,82,0.00,,,0.02,VWS V14.01,2013-09-27 18:36:00,
2013-09-27 13:41:00,53.5,47.4,29.68,West,267,6.0,8.0,80,0.00,,,0.02,VWS V14.01,2013-09-27 18:41:00,
2013-09-27 13:45:00,52.9,47.5,29.70,WNW,284,4.0,8.0,82,0.00,,,0.02,VWS V14.01,2013-09-27 18:45:00,
2013-09-27 13:46:00,53.7,47.9,29.67,WNW,282,6.0,7.0,81,0.00,,,0.02,VWS V14.01,2013-09-27 18:46:00,
2013-09-27 13:51:00,53.9,48.1,29.67,WNW,286,6.0,7.0,81,0.00,,,0.02,VWS V14.01,2013-09-27 18:51:00,
2013-09-27 13:56:00,53.9,47.8,29.67,WNW,288,7.0,7.0,80,0.00,,,0.02,VWS V14.01,2013-09-27 18:56:00,
2013-09-27 14:00:00,53.3,47.9,29.67,NW,322,4.0,9.0,82,0.00,,,0.02,VWS V14.01,2013-09-27 19:00:00,
2013-09-27 14:01:00,53.6,47.5,29.67,WNW,297,6.0,8.0,80,0.00,,,0.02,VWS V14.01,2013-09-27 19:01:00,
2013-09-27 14:06:00,53.4,47.0,29.67,West,276,4.0,8.0,79,0.00,,,0.02,VWS V14.01,2013-09-27 19:06:00,
2013-09-27 14:11:00,53.7,47.6,29.67,West,266,4.0,8.0,80,0.00,,,0.02,VWS V14.01,2013-09-27 19:11:00,
2013-09-27 14:15:00,53.2,47.8,29.69,WNW,296,1.0,10.0,82,0.00,,,0.02,VWS V14.01,2013-09-27 19:15:00,
2013-09-27 14:16:00,54.0,48.5,29.66,NW,308,1.0,5.0,82,0.00,,,0.02,VWS V14.01,2013-09-27 19:16:00,
2013-09-27 14:21:00,54.0,48.2,29.66,NW,313,7.0,7.0,81,0.00,,,0.02,VWS V14.01,2013-09-27 19:21:00,
2013-09-27 14:26:00,54.1,48.3,29.66,WSW,253,5.0,7.0,81,0.00,,,0.02,VWS V14.01,2013-09-27 19:26:00,
2013-09-27 14:30:00,53.2,47.8,29.69,West,269,6.0,7.0,82,0.00,,,0.02,VWS V14.01,2013-09-27 19:30:00,
2013-09-27 14:31:00,54.2,47.7,29.66,WNW,282,5.0,6.0,79,0.00,,,0.02,VWS V14.01,2013-09-27 19:31:00,
2013-09-27 14:36:00,54.3,47.8,29.66,NW,323,3.0,8.0,79,0.00,,,0.02,VWS V14.01,2013-09-27 19:36:00,
2013-09-27 14:41:00,54.2,48.1,29.66,NNW,327,4.0,8.0,80,0.00,,,0.02,VWS V14.01,2013-09-27 19:41:00,
2013-09-27 14:45:00,53.7,47.9,29.67,WNW,291,3.0,8.0,81,0.00,,,0.02,VWS V14.01,2013-09-27 19:45:00,
2013-09-27 14:46:00,54.0,47.5,29.66,WNW,285,7.0,8.0,79,0.00,,,0.02,VWS V14.01,2013-09-27 19:46:00,
2013-09-27 14:51:00,53.7,47.2,29.65,WNW,291,10.0,10.0,79,0.00,,,0.02,VWS V14.01,2013-09-27 19:51:00,
2013-09-27 14:56:00,53.5,47.4,29.66,WNW,292,5.0,11.0,80,0.00,,,0.02,VWS V14.01,2013-09-27 19:56:00,
2013-09-27 15:00:00,53.4,47.6,29.65,West,275,7.0,10.0,81,0.00,,,0.02,VWS V14.01,2013-09-27 20:00:00,
2013-09-27 15:05:00,53.3,47.5,29.65,West,274,4.0,10.0,81,0.00,,,0.02,VWS V14.01,2013-09-27 20:05:00,
2013-09-27 15:10:00,53.3,47.5,29.65,West,275,7.0,10.0,81,0.00,,,0.02,VWS V14.01,2013-09-27 20:10:00,
2013-09-27 15:15:00,53.3,47.5,29.66,West,274,7.0,8.0,81,0.00,,,0.02,VWS V14.01,2013-09-27 20:15:00,
2013-09-27 15:20:00,53.2,47.4,29.66,NW,317,6.0,11.0,81,0.00,,,0.02,VWS V14.01,2013-09-27 20:20:00,
2013-09-27 15:25:00,53.2,47.8,29.66,West,271,7.0,11.0,82,0.00,,,0.02,VWS V14.01,2013-09-27 20:25:00,
2013-09-27 15:30:00,53.2,47.8,29.65,West,267,7.0,10.0,82,0.00,,,0.02,VWS V14.01,2013-09-27 20:30:00,
2013-09-27 15:35:00,53.5,48.0,29.65,NW,321,3.0,10.0,82,0.00,,,0.02,VWS V14.01,2013-09-27 20:35:00,
2013-09-27 15:40:00,53.7,47.6,29.65,NW,316,4.0,11.0,80,0.00,,,0.02,VWS V14.01,2013-09-27 20:40:00,
2013-09-27 15:45:00,53.7,47.9,29.64,WNW,296,8.0,8.0,81,0.00,,,0.02,VWS V14.01,2013-09-27 20:45:00,
2013-09-27 15:50:00,53.9,48.1,29.65,WNW,297,4.0,8.0,81,0.00,,,0.02,VWS V14.01,2013-09-27 20:50:00,
2013-09-27 15:55:00,53.8,47.3,29.65,West,280,5.0,11.0,79,0.00,,,0.02,VWS V14.01,2013-09-27 20:55:00,
2013-09-27 16:00:00,53.8,47.7,29.65,WNW,293,5.0,5.0,80,0.00,,,0.02,VWS V14.01,2013-09-27 21:00:00,
2013-09-27 16:05:00,53.7,47.2,29.65,WNW,294,6.0,8.0,79,0.00,,,0.02,VWS V14.01,2013-09-27 21:05:00,
2013-09-27 16:10:00,53.5,47.4,29.65,WNW,286,7.0,8.0,80,0.00,,,0.02,VWS V14.01,2013-09-27 21:10:00,
2013-09-27 16:15:00,53.4,47.3,29.65,WNW,297,7.0,8.0,80,0.00,,,0.02,VWS V14.01,2013-09-27 21:15:00,
2013-09-27 16:20:00,53.3,47.2,29.65,WNW,288,6.0,9.0,80,0.00,,,0.02,VWS V14.01,2013-09-27 21:20:00,
2013-09-27 16:25:00,53.1,47.3,29.66,WNW,289,5.0,9.0,81,0.00,,,0.02,VWS V14.01,2013-09-27 21:25:00,
2013-09-27 16:30:00,52.9,47.1,29.66,West,275,4.0,7.0,81,0.00,,,0.02,VWS V14.01,2013-09-27 21:30:00,
2013-09-27 16:35:00,52.8,47.0,29.66,WNW,294,6.0,10.0,81,0.00,,,0.02,VWS V14.01,2013-09-27 21:35:00,
2013-09-27 16:40:00,52.7,47.3,29.66,WNW,287,4.0,10.0,82,0.00,,,0.02,VWS V14.01,2013-09-27 21:40:00,
2013-09-27 16:45:00,52.6,46.8,29.65,West,271,7.0,7.0,81,0.00,,,0.02,VWS V14.01,2013-09-27 21:45:00,
2013-09-27 16:50:00,52.6,47.2,29.65,West,280,4.0,9.0,82,0.00,,,0.02,VWS V14.01,2013-09-27 21:50:00,
2013-09-27 16:55:00,52.5,47.1,29.64,WNW,299,3.0,10.0,82,0.00,,,0.02,VWS V14.01,2013-09-27 21:55:00,
2013-09-27 17:00:00,52.4,47.3,29.64,West,278,6.0,6.0,83,0.00,,,0.02,VWS V14.01,2013-09-27 22:00:00,
2013-09-27 17:05:00,52.1,47.0,29.65,WNW,298,6.0,9.0,83,0.00,,,0.02,VWS V14.01,2013-09-27 22:05:00,
2013-09-27 17:10:00,51.9,47.1,29.64,West,269,7.0,12.0,84,0.00,,,0.02,VWS V14.01,2013-09-27 22:10:00,
2013-09-27 17:15:00,51.8,47.3,29.65,WNW,284,6.0,6.0,85,0.00,,,0.02,VWS V14.01,2013-09-27 22:15:00,
2013-09-27 17:20:00,51.5,47.4,29.66,West,273,5.0,10.0,86,0.00,,,0.02,VWS V14.01,2013-09-27 22:20:00,
2013-09-27 17:25:00,51.1,47.0,29.66,West,278,5.0,10.0,86,0.00,,,0.02,VWS V14.01,2013-09-27 22:25:00,
2013-09-27 17:30:00,50.9,47.1,29.66,West,281,5.0,5.0,87,0.00,,,0.02,VWS V14.01,2013-09-27 22:30:00,
2013-09-27 17:35:00,50.8,47.3,29.65,WNW,285,2.0,6.0,88,0.00,,,0.02,VWS V14.01,2013-09-27 22:35:00,
2013-09-27 17:40:00,50.8,47.6,29.65,WNW,294,2.0,6.0,89,0.00,,,0.02,VWS V14.01,2013-09-27 22:40:00,
2013-09-27 17:45:00,50.7,47.8,29.65,WNW,296,1.0,2.0,90,0.00,,,0.02,VWS V14.01,2013-09-27 22:45:00,
2013-09-27 17:50:00,50.6,47.7,29.65,WNW,284,4.0,5.0,90,0.00,,,0.02,VWS V14.01,2013-09-27 22:50:00,
2013-09-27 17:55:00,50.4,47.5,29.65,West,267,4.0,6.0,90,0.00,,,0.02,VWS V14.01,2013-09-27 22:55:00,
2013-09-27 18:00:00,50.3,47.4,29.65,WNW,282,4.0,4.0,90,0.00,,,0.02,VWS V14.01,2013-09-27 23:00:00,
2013-09-27 18:05:00,50.2,47.6,29.65,WNW,286,4.0,7.0,91,0.00,,,0.02,VWS V14.01,2013-09-27 23:05:00,
2013-09-27 18:10:00,50.1,47.5,29.65,West,280,4.0,7.0,91,0.01,,,0.03,VWS V14.01,2013-09-27 23:10:00,
2013-09-27 18:15:00,50.2,47.6,29.66,WSW,255,4.0,4.0,91,0.01,,,0.03,VWS V14.01,2013-09-27 23:15:00,
2013-09-27 18:20:00,50.1,47.5,29.66,WNW,289,2.0,5.0,91,0.02,,,0.04,VWS V14.01,2013-09-27 23:20:00,
2013-09-27 18:25:00,50.0,47.7,29.66,WSW,247,2.0,5.0,92,0.03,,,0.05,VWS V14.01,2013-09-27 23:25:00,
2013-09-27 18:30:00,49.9,47.6,29.67,West,263,2.0,3.0,92,0.04,,,0.06,VWS V14.01,2013-09-27 23:30:00,
2013-09-27 18:35:00,49.7,47.4,29.66,West,278,4.0,5.0,92,0.05,,,0.07,VWS V14.01,2013-09-27 23:35:00,
2013-09-27 18:40:00,49.6,47.3,29.66,West,270,3.0,5.0,92,0.06,,,0.08,VWS V14.01,2013-09-27 23:40:00,
2013-09-27 18:45:00,49.6,47.6,29.66,West,265,3.0,4.0,93,0.08,,,0.10,VWS V14.01,2013-09-27 23:45:00,
2013-09-27 18:50:00,49.5,47.5,29.67,WNW,282,3.0,4.0,93,0.09,,,0.11,VWS V14.01,2013-09-27 23:50:00,
2013-09-27 18:55:00,49.5,47.5,29.67,West,259,2.0,4.0,93,0.10,,,0.12,VWS V14.01,2013-09-27 23:55:00,
2013-09-27 19:00:00,49.4,47.4,29.68,West,269,1.0,3.0,93,0.10,,,0.12,VWS V14.01,2013-09-28 00:00:00,
2013-09-27 19:05:00,49.4,47.4,29.68,SW,228,3.0,4.0,93,0.11,,,0.13,VWS V14.01,2013-09-28 00:05:00,
2013-09-27 19:10:00,49.4,47.7,29.68,West,271,2.0,5.0,94,0.11,,,0.13,VWS V14.01,2013-09-28 00:10:00,
2013-09-27 19:15:00,49.4,47.7,29.68,West,269,2.0,2.0,94,0.10,,,0.13,VWS V14.01,2013-09-28 00:15:00,
2013-09-27 19:20:00,49.4,47.7,29.68,WSW,246,3.0,5.0,94,0.11,,,0.14,VWS V14.01,2013-09-28 00:20:00,
2013-09-27 19:25:00,49.5,47.8,29.69,WSW,255,4.0,5.0,94,0.11,,,0.14,VWS V14.01,2013-09-28 00:25:00,
2013-09-27 19:30:00,49.4,47.7,29.69,WSW,243,2.0,6.0,94,0.09,,,0.15,VWS V14.01,2013-09-28 00:30:00,
2013-09-27 19:35:00,49.5,47.8,29.69,WSW,255,2.0,6.0,94,0.09,,,0.15,VWS V14.01,2013-09-28 00:35:00,
2013-09-27 19:40:00,49.5,47.8,29.70,West,260,1.0,6.0,94,0.10,,,0.16,VWS V14.01,2013-09-28 00:40:00,
2013-09-27 19:45:00,49.5,47.8,29.70,WSW,242,1.0,2.0,94,0.07,,,0.16,VWS V14.01,2013-09-28 00:45:00,
2013-09-27 19:50:00,49.5,47.8,29.69,WSW,247,2.0,4.0,94,0.07,,,0.16,VWS V14.01,2013-09-28 00:50:00,
2013-09-27 19:55:00,49.4,47.7,29.69,West,263,3.0,4.0,94,0.08,,,0.17,VWS V14.01,2013-09-28 00:55:00,
2013-09-27 20:00:00,49.4,47.7,29.69,West,266,1.0,3.0,94,0.06,,,0.18,VWS V14.01,2013-09-28 01:00:00,
2013-09-27 20:05:00,49.3,47.6,29.68,WSW,248,1.0,4.0,94,0.06,,,0.18,VWS V14.01,2013-09-28 01:05:00,
2013-09-27 20:10:00,49.3,47.6,29.68,SW,233,1.0,4.0,94,0.07,,,0.19,VWS V14.01,2013-09-28 01:10:00,
2013-09-27 20:15:00,49.3,47.6,29.68,WSW,241,2.0,4.0,94,0.06,,,0.19,VWS V14.01,2013-09-28 01:15:00,
2013-09-27 20:20:00,49.2,47.5,29.68,West,260,2.0,4.0,94,0.06,,,0.19,VWS V14.01,2013-09-28 01:20:00,
2013-09-27 20:25:00,49.2,47.5,29.68,West,268,2.0,4.0,94,0.06,,,0.19,VWS V14.01,2013-09-28 01:25:00,
2013-09-27 20:30:00,49.1,47.4,29.68,West,268,1.0,1.0,94,0.05,,,0.19,VWS V14.01,2013-09-28 01:30:00,
2013-09-27 20:35:00,49.1,47.4,29.68,West,268,2.0,2.0,94,0.05,,,0.19,VWS V14.01,2013-09-28 01:35:00,
2013-09-27 20:40:00,49.1,47.4,29.68,West,268,1.0,3.0,94,0.05,,,0.19,VWS V14.01,2013-09-28 01:40:00,
2013-09-27 20:45:00,49.1,47.4,29.67,West,268,1.0,1.0,94,0.03,,,0.19,VWS V14.01,2013-09-28 01:45:00,
2013-09-27 20:50:00,49.0,47.3,29.68,West,268,1.0,2.0,94,0.04,,,0.20,VWS V14.01,2013-09-28 01:50:00,
2013-09-27 20:55:00,49.1,47.4,29.68,West,268,1.0,2.0,94,0.04,,,0.20,VWS V14.01,2013-09-28 01:55:00,
2013-09-27 21:00:00,49.1,47.4,29.68,West,268,2.0,2.0,94,0.02,,,0.20,VWS V14.01,2013-09-28 02:00:00,
2013-09-27 21:05:00,49.1,47.4,29.67,West,268,2.0,3.0,94,0.02,,,0.20,VWS V14.01,2013-09-28 02:05:00,
2013-09-27 21:10:00,49.1,47.4,29.68,West,268,2.0,3.0,94,0.02,,,0.20,VWS V14.01,2013-09-28 02:10:00,
2013-09-27 21:15:00,49.0,47.3,29.68,West,268,1.0,1.0,94,0.01,,,0.20,VWS V14.01,2013-09-28 02:15:00,
2013-09-27 21:20:00,49.1,47.4,29.69,SW,215,2.0,4.0,94,0.01,,,0.20,VWS V14.01,2013-09-28 02:20:00,
2013-09-27 21:25:00,49.2,47.5,29.69,South,178,3.0,5.0,94,0.01,,,0.20,VWS V14.01,2013-09-28 02:25:00,
2013-09-27 21:30:00,49.3,47.6,29.69,South,184,3.0,3.0,94,0.01,,,0.20,VWS V14.01,2013-09-28 02:30:00,
2013-09-27 21:35:00,49.3,47.6,29.69,South,176,3.0,6.0,94,0.01,,,0.20,VWS V14.01,2013-09-28 02:35:00,
2013-09-27 21:40:00,49.3,47.6,29.69,South,188,2.0,6.0,94,0.01,,,0.20,VWS V14.01,2013-09-28 02:40:00,
2013-09-27 21:45:00,49.4,47.7,29.69,SSW,201,1.0,2.0,94,0.01,,,0.20,VWS V14.01,2013-09-28 02:45:00,
2013-09-27 21:50:00,49.4,47.7,29.68,SW,218,4.0,4.0,94,0.01,,,0.20,VWS V14.01,2013-09-28 02:50:00,
2013-09-27 21:55:00,49.3,47.6,29.68,WSW,244,2.0,4.0,94,0.01,,,0.20,VWS V14.01,2013-09-28 02:55:00,
2013-09-27 22:00:00,49.2,47.5,29.67,West,259,2.0,2.0,94,0.00,,,0.20,VWS V14.01,2013-09-28 03:00:00,
2013-09-27 22:05:00,49.1,47.4,29.67,West,271,2.0,7.0,94,0.00,,,0.20,VWS V14.01,2013-09-28 03:05:00,
2013-09-27 22:10:00,49.1,47.4,29.67,West,266,0.0,7.0,94,0.00,,,0.20,VWS V14.01,2013-09-28 03:10:00,
2013-09-27 22:15:00,49.1,47.4,29.67,West,266,0.0,0.0,94,0.00,,,0.20,VWS V14.01,2013-09-28 03:15:00,
2013-09-27 22:20:00,49.0,47.3,29.67,West,266,0.0,1.0,94,0.00,,,0.20,VWS V14.01,2013-09-28 03:20:00,
2013-09-27 22:25:00,49.0,47.3,29.67,West,266,0.0,1.0,94,0.00,,,0.20,VWS V14.01,2013-09-28 03:25:00,
2013-09-27 22:30:00,49.0,47.3,29.67,West,266,0.0,1.0,94,0.00,,,0.20,VWS V14.01,2013-09-28 03:30:00,
2013-09-27 22:35:00,48.9,47.2,29.67,West,266,1.0,2.0,94,0.00,,,0.20,VWS V14.01,2013-09-28 03:35:00,
2013-09-27 22:40:00,48.9,47.2,29.68,WSW,244,3.0,3.0,94,0.00,,,0.20,VWS V14.01,2013-09-28 03:40:00,
2013-09-27 22:45:00,48.9,47.2,29.69,WSW,251,2.0,2.0,94,0.00,,,0.20,VWS V14.01,2013-09-28 03:45:00,
2013-09-27 22:50:00,48.9,47.2,29.70,SW,232,2.0,4.0,94,0.00,,,0.20,VWS V14.01,2013-09-28 03:50:00,
2013-09-27 22:55:00,48.9,47.2,29.69,WSW,244,5.0,6.0,94,0.00,,,0.20,VWS V14.01,2013-09-28 03:55:00,
2013-09-27 23:00:00,49.0,47.3,29.69,SW,224,2.0,2.0,94,0.00,,,0.20,VWS V14.01,2013-09-28 04:00:00,
2013-09-27 23:01:00,49.0,47.3,29.69,SW,222,2.0,3.0,94,0.00,,,0.20,VWS V14.01,2013-09-28 04:01:00,
2013-09-27 23:06:00,49.0,47.3,29.69,SW,234,1.0,3.0,94,0.00,,,0.20,VWS V14.01,2013-09-28 04:06:00,
2013-09-27 23:11:00,49.0,47.3,29.70,SW,229,2.0,4.0,94,0.00,,,0.20,VWS V14.01,2013-09-28 04:11:00,
2013-09-27 23:15:00,49.1,47.4,29.67,West,266,0.0,7.0,94,0.00,,,0.20,VWS V14.01,2013-09-28 04:15:00,
2013-09-27 23:16:00,49.0,47.3,29.70,SSW,208,1.0,4.0,94,0.00,,,0.20,VWS V14.01,2013-09-28 04:16:00,
2013-09-27 23:21:00,49.1,47.4,29.69,SW,222,3.0,4.0,94,0.00,,,0.20,VWS V14.01,2013-09-28 04:21:00,
2013-09-27 23:26:00,49.2,47.5,29.69,SW,228,2.0,4.0,94,0.00,,,0.20,VWS V14.01,2013-09-28 04:26:00,
2013-09-27 23:30:00,49.0,47.3,29.67,West,266,1.0,2.0,94,0.00,,,0.20,VWS V14.01,2013-09-28 04:30:00,
2013-09-27 23:31:00,49.2,47.5,29.68,SW,226,1.0,1.0,94,0.00,,,0.20,VWS V14.01,2013-09-28 04:31:00,
2013-09-27 23:36:00,49.2,47.5,29.67,SSW,211,1.0,3.0,94,0.00,,,0.20,VWS V14.01,2013-09-28 04:36:00,
2013-09-27 23:41:00,49.1,47.4,29.67,West,262,3.0,4.0,94,0.00,,,0.20,VWS V14.01,2013-09-28 04:41:00,
2013-09-27 23:45:00,48.9,47.2,29.69,WSW,251,1.0,3.0,94,0.00,,,0.20,VWS V14.01,2013-09-28 04:45:00,
2013-09-27 23:46:00,49.0,47.3,29.66,West,278,1.0,2.0,94,0.00,,,0.20,VWS V14.01,2013-09-28 04:46:00,
2013-09-27 23:51:00,48.9,47.2,29.66,WSW,254,0.0,3.0,94,0.00,,,0.20,VWS V14.01,2013-09-28 04:51:00,
2013-09-27 23:56:00,48.8,47.1,29.67,WSW,253,1.0,3.0,94,0.00,,,0.20,VWS V14.01,2013-09-28 04:56:00,